Regional Weather Roundup
Issued by NWS Cleveland, OH

Home | Current Version | Previous Version | Graphics & Text | Print | Product List | Glossary On
Versions: 1 2 3 4 5 6 7 8 9 10 11 12 13 14 15 16 17 18 19 20 21 22 23 24 25 26 27 28 29 30 31 32 33 34 35 36 37 38 39 40 41 42 43 44 45 46 47 48 49 50
000
ASUS41 KCLE 242310
RWRCLE
OHIO REGIONAL WEATHER ROUNDUP
NATIONAL WEATHER SERVICE WILMINGTON, OH
700 PM EDT MON APR 24 2017

NOTE: "FAIR" INDICATES FEW OR NO CLOUDS BELOW 12,000 FEET WITH NO
SIGNIFICANT WEATHER AND/OR OBSTRUCTIONS TO VISIBILITY.

OHZ001>008-015>018-024>027-034-035-043-044-250000-
   NORTHWEST OHIO

CITY           SKY/WX    TMP DP  RH WIND       PRES   REMARKS
DEFIANCE       FAIR      64  33  31 E16G24    29.88F
FINDLAY        FAIR      67  37  33 NE14G24   29.86F
TOLEDO EXPRESS FAIR      60  37  42 E14       29.91F
TOLEDO EXEC    FAIR      59  41  51 E15G24    29.92F
LIMA           PTSUNNY   69  42  37 NE14G23   29.84F
$$

OHZ009>014-019>023-028>033-038-089-250000-
   NORTHEAST OHIO

CITY           SKY/WX    TMP DP  RH WIND       PRES   REMARKS
CLE-HOPKINS    FAIR      72  39  30 E16       29.93S
CLE-LAKEFRONT  FAIR      71  40  32 E20G28    29.90F
CUY CO. ARPT   MOSUNNY   72  34  25 SE16      29.94R
LORAIN-ELYRIA  FAIR      63  42  46 E9        29.90F
ASHTABULA      FAIR      60  43  53 NE6       29.98S
AKRON-CANTON   PTSUNNY   64  42  44 E17G24    29.94S
WOOSTER        CLOUDY    64  46  52 SE21      29.93S
MANSFIELD      FAIR      67  47  48 E20       29.90S
YOUNGSTOWN     PTSUNNY   63  42  46 SE13      29.97S
$$

OHZ042-051>053-060>062-070>072-077>081-250000-
  SOUTHWEST OHIO

CITY           SKY/WX    TMP DP  RH WIND       PRES   REMARKS
CINC-COVINGTON FAIR      68  53  58 E17       29.80S
CINC-LUNKEN    PTSUNNY   68  55  63 E13G20    29.82R
HAMILTON       CLOUDY    68  52  56 E13       29.82S
DAYTON         PTSUNNY   66  50  56 E18       29.84R
WRIGHT-PAT AFB FAIR      67  51  54 E13       29.83S
DAYTON GENERAL PTSUNNY   67  50  54 E10G18    29.82R
WILMINGTON     FAIR      64  53  67 E12G20    29.83F
$$

OHZ036-037-039>041-045>050-054>059-063>069-073>076-082>088-250000-
  CENTRAL AND SOUTHEAST OHIO

CITY           SKY/WX    TMP DP  RH WIND       PRES   REMARKS
COLUMBUS       PTSUNNY   65  49  56 E16       29.86F
OSU AIRPORT    PTSUNNY   66  51  58 E15G22    29.86F
BOLTON FIELD   CLOUDY    64  52  63 E9        29.87F
RICKENBACK AFB PTSUNNY   63  51  64 E13       29.86F
NEWARK         FAIR      64  47  53 E17G24    29.88F
MARION         CLOUDY    68  47  46 E18       29.87F
LANCASTER      FAIR      62  50  64 E13       29.88F
ZANESVILLE     FAIR      57  46  66 E20G26    29.91F
NEW PHILLY     CLOUDY    59  45  59 E10G18    29.95F
$$




USA.gov is the U.S. government's official web portal to all federal, state and local government web resources and services.